When you browse on this site, cookies collect data to enhance your experience and personalize the content and advertising you see.
Visit our Privacy Policy to learn more. By continuing to use the site, you agree to this use of cookies and data.
  • In Portugal
  • List of Countries
  • For 7 days
  • Water Temperature
  • Satellite Maps
  • Weather Map
  • Weather Widgets
  • user-avatar
    Login

    Hourly Weather Mostar

    Today, 21 January, Monday

    Time Temperature Precipitation Wind Pressure Humidity
    00:00 +6°C° 0.3 mm 2 mps 755 mmHg 85%
    01:00 +6°C° 0.3 mm 2 mps 755 mmHg 84%
    02:00 +6°C° 0.8 mm 2 mps 754 mmHg 84%
    03:00 +6°C° 0.8 mm 2 mps 754 mmHg 84%
    04:00 +6°C° 0.8 mm 2 mps 754 mmHg 84%
    05:00 +6°C° 0.6 mm 2 mps 754 mmHg 84%
    06:00 +6°C° 0.6 mm 2 mps 754 mmHg 84%
    07:00 +6°C° 0.6 mm 2 mps 754 mmHg 84%
    08:00 +6°C° 0.5 mm 2 mps 754 mmHg 83%
    09:00 +7°C° 0.5 mm 2 mps 754 mmHg 82%
    10:00 +7°C° 0.5 mm 2 mps 754 mmHg 81%
    11:00 +7°C° 0.7 mm 2 mps 754 mmHg 81%
    12:00 +8°C° 0.7 mm 2 mps 754 mmHg 80%
    13:00 +8°C° 0.7 mm 2 mps 754 mmHg 79%
    14:00 +8°C° 0.4 mm 2 mps 754 mmHg 80%
    15:00 +8°C° 0.4 mm 2 mps 753 mmHg 81%
    16:00 +8°C° 0.4 mm 2 mps 753 mmHg 82%
    17:00 +7°C° 0.2 mm 2 mps 753 mmHg 82%
    18:00 +7°C° 0.2 mm 2 mps 753 mmHg 82%
    19:00 +7°C° 0.2 mm 2 mps 753 mmHg 82%
    20:00 +7°C° 0.2 mm 2 mps 753 mmHg 82%
    21:00 +6°C° 0.2 mm 2 mps 753 mmHg 82%
    22:00 +6°C° 0.2 mm 2 mps 753 mmHg 81%
    23:00 +5°C° 0.3 mm 3 mps 753 mmHg 81%

    Tomorrow, 22 January, Tuesday

    Time Temperature Precipitation Wind Pressure Humidity
    00:00 +7°C° 0.3 mm 3 mps 752 mmHg 80%
    01:00 +7°C° 0.3 mm 3 mps 752 mmHg 80%
    02:00 +7°C° 0.8 mm 3 mps 752 mmHg 81%
    03:00 +7°C° 0.8 mm 3 mps 751 mmHg 83%
    04:00 +7°C° 0.8 mm 3 mps 751 mmHg 85%
    05:00 +7°C° 1.1 mm 3 mps 750 mmHg 85%
    06:00 +7°C° 1.1 mm 3 mps 750 mmHg 85%
    07:00 +7°C° 1.1 mm 3 mps 749 mmHg 86%
    08:00 +7°C° 0.8 mm 3 mps 749 mmHg 86%
    09:00 +6°C° 0.8 mm 4 mps 749 mmHg 86%
    10:00 +6°C° 0.8 mm 4 mps 748 mmHg 86%
    11:00 +6°C° 1.3 mm 4 mps 748 mmHg 87%
    12:00 +6°C° 1.3 mm 4 mps 747 mmHg 88%
    13:00 +6°C° 1.3 mm 4 mps 746 mmHg 89%
    14:00 +7°C° 2.9 mm 3 mps 745 mmHg 90%
    15:00 +7°C° 2.9 mm 3 mps 745 mmHg 91%
    16:00 +7°C° 2.9 mm 2 mps 744 mmHg 92%
    17:00 +7°C° 2.2 mm 2 mps 744 mmHg 93%
    18:00 +7°C° 2.2 mm 2 mps 744 mmHg 94%
    19:00 +7°C° 2.2 mm 2 mps 743 mmHg 94%
    20:00 +8°C° 0.9 mm 1 mps 743 mmHg 94%
    21:00 +8°C° 0.9 mm 1 mps 743 mmHg 94%
    22:00 +8°C° 0.9 mm 1 mps 743 mmHg 94%
    23:00 +7°C° 1.3 mm 2 mps 742 mmHg 94%

    Day after tomorrow, 23 January, Wednesday

    Time Temperature Precipitation Wind Pressure Humidity
    00:00 +7°C° 1.3 mm 2 mps 742 mmHg 95%
    01:00 +8°C° 1.3 mm 3 mps 742 mmHg 95%
    02:00 +7°C° 1 mm 2 mps 742 mmHg 95%
    03:00 +7°C° 1 mm 2 mps 742 mmHg 94%
    04:00 +7°C° 1 mm 2 mps 742 mmHg 94%
    05:00 +7°C° 0.9 mm 2 mps 742 mmHg 93%
    06:00 +6°C° 0.9 mm 2 mps 742 mmHg 92%
    07:00 +5°C° 0.9 mm 3 mps 742 mmHg 92%
    08:00 +7°C° 0.7 mm 3 mps 743 mmHg 88%
    09:00 +7°C° 0.7 mm 3 mps 743 mmHg 85%
    10:00 +7°C° 0.7 mm 4 mps 743 mmHg 82%
    11:00 +8°C° 0.4 mm 3 mps 743 mmHg 81%
    12:00 +8°C° 0.4 mm 3 mps 743 mmHg 80%
    13:00 +8°C° 0.4 mm 3 mps 743 mmHg 79%
    14:00 +8°C° 0.1 mm 3 mps 743 mmHg 79%
    15:00 +8°C° 0.1 mm 3 mps 743 mmHg 79%
    16:00 +8°C° 0.1 mm 3 mps 743 mmHg 79%
    17:00 +8°C° 0 mm 3 mps 743 mmHg 80%
    18:00 +7°C° 0 mm 3 mps 743 mmHg 82%
    19:00 +5°C° 0 mm 3 mps 743 mmHg 83%
    20:00 +5°C° 0 mm 3 mps 744 mmHg 82%
    21:00 +4°C° 0 mm 3 mps 744 mmHg 81%
    22:00 +4°C° 0 mm 3 mps 744 mmHg 80%
    23:00 +4°C° 0 mm 3 mps 743 mmHg 79%

    24 January, Thursday

    Time Temperature Precipitation Wind Pressure Humidity
    00:00 +3°C° 0 mm 3 mps 743 mmHg 77%
    01:00 +3°C° 0 mm 3 mps 743 mmHg 75%
    02:00 +3°C° 0 mm 3 mps 742 mmHg 75%
    03:00 +3°C° 0 mm 3 mps 742 mmHg 75%
    04:00 +3°C° 0 mm 3 mps 742 mmHg 75%
    05:00 +3°C° 0 mm 4 mps 742 mmHg 74%
    06:00 +3°C° 0 mm 4 mps 742 mmHg 73%
    07:00 +3°C° 0 mm 4 mps 741 mmHg 73%
    08:00 +3°C° 0 mm 5 mps 741 mmHg 71%
    09:00 +5°C° 0 mm 5 mps 741 mmHg 70%
    10:00 +5°C° 0 mm 6 mps 741 mmHg 68%
    11:00 +7°C° 0 mm 6 mps 741 mmHg 66%
    12:00 +8°C° 0 mm 7 mps 740 mmHg 65%
    13:00 +8°C° 0 mm 7 mps 740 mmHg 63%
    14:00 +8°C° 0 mm 7 mps 740 mmHg 64%
    15:00 +6°C° 0 mm 7 mps 741 mmHg 64%
    16:00 +6°C° 0 mm 7 mps 741 mmHg 64%
    17:00 +6°C° 0.1 mm 7 mps 741 mmHg 65%
    18:00 +5°C° 0.1 mm 6 mps 742 mmHg 65%
    19:00 +5°C° 0.1 mm 6 mps 743 mmHg 66%
    20:00 +6°C° 0.1 mm 5 mps 743 mmHg 67%
    21:00 +5°C° 0.1 mm 5 mps 743 mmHg 68%
    22:00 +5°C° 0.1 mm 4 mps 744 mmHg 69%
    23:00 +5°C° 0 mm 5 mps 744 mmHg 68%

    25 January, Friday

    Time Temperature Precipitation Wind Pressure Humidity
    00:00 +5°C° 0 mm 5 mps 744 mmHg 67%
    01:00 +4°C° 0 mm 6 mps 744 mmHg 67%
    02:00 +3°C° 0 mm 6 mps 744 mmHg 66%
    03:00 +3°C° 0 mm 7 mps 744 mmHg 65%
    04:00 +3°C° 0 mm 7 mps 744 mmHg 64%
    05:00 +3°C° 0 mm 6 mps 744 mmHg 65%
    06:00 +3°C° 0 mm 5 mps 745 mmHg 66%
    07:00 +3°C° 0 mm 5 mps 746 mmHg 67%
    08:00 +3°C° 0.1 mm 5 mps 746 mmHg 67%
    09:00 +5°C° 0.1 mm 5 mps 747 mmHg 67%
    10:00 +5°C° 0.1 mm 5 mps 747 mmHg 67%
    11:00 +6°C° 0 mm 5 mps 747 mmHg 65%
    12:00 +6°C° 0 mm 5 mps 747 mmHg 63%
    13:00 +7°C° 0 mm 5 mps 747 mmHg 60%
    14:00 +7°C° 0 mm 4 mps 747 mmHg 62%
    15:00 +6°C° 0 mm 4 mps 747 mmHg 63%
    16:00 +7°C° 0 mm 3 mps 748 mmHg 64%
    17:00 +5°C° 0 mm 3 mps 748 mmHg 65%
    18:00 +4°C° 0 mm 3 mps 748 mmHg 66%
    19:00 +3°C° 0 mm 3 mps 749 mmHg 67%
    20:00 +3°C° 0 mm 3 mps 749 mmHg 67%
    21:00 +3°C° 0 mm 4 mps 749 mmHg 68%
    22:00 +1°C° 0 mm 4 mps 750 mmHg 68%
    23:00 +1°C° 0 mm 4 mps 750 mmHg 68%

    26 January, Saturday

    Time Temperature Precipitation Wind Pressure Humidity
    00:00 +2°C° 0 mm 3 mps 750 mmHg 68%
    01:00 +2°C° 0 mm 3 mps 750 mmHg 68%
    02:00 +2°C° 0 mm 3 mps 750 mmHg 68%
    03:00 +2°C° 0 mm 3 mps 750 mmHg 68%
    04:00 +1°C° 0 mm 3 mps 750 mmHg 69%
    05:00 +1°C° 0 mm 3 mps 750 mmHg 69%
    06:00 +1°C° 0 mm 3 mps 750 mmHg 69%
    07:00 +1°C° 0 mm 3 mps 751 mmHg 69%
    08:00 +2°C° 0 mm 3 mps 751 mmHg 66%
    09:00 +3°C° 0 mm 3 mps 751 mmHg 64%
    10:00 +4°C° 0 mm 3 mps 751 mmHg 61%
    11:00 +5°C° 0 mm 3 mps 751 mmHg 59%
    12:00 +7°C° 0 mm 3 mps 751 mmHg 58%
    13:00 +8°C° 0 mm 3 mps 750 mmHg 57%
    14:00 +7°C° 0 mm 3 mps 750 mmHg 60%
    15:00 +7°C° 0 mm 3 mps 750 mmHg 62%
    16:00 +7°C° 0 mm 2 mps 750 mmHg 65%
    17:00 +5°C° 0 mm 2 mps 750 mmHg 67%
    18:00 +4°C° 0 mm 2 mps 750 mmHg 69%
    19:00 +3°C° 0 mm 2 mps 751 mmHg 71%
    20:00 +3°C° 0 mm 2 mps 750 mmHg 69%
    21:00 +2°C° 0 mm 2 mps 750 mmHg 68%
    22:00 +2°C° 0 mm 2 mps 750 mmHg 66%
    23:00 +2°C° 0 mm 2 mps 750 mmHg 64%
    Show more